Weather History for Apalachicola, FL

Change the Weather History Date:

Friday, December 7, 2012

  Actual Average Record
Temperature  
Mean Temperature 60 °F 57 °F  
Max Temperature 67 °F 67 °F 80 °F (2013)
Min Temperature 53 °F 47 °F 23 °F (1937)
Degree Days  
Heating Degree Days 5    
Month to date heating degree days 13  
Since 1 July heating degree days 216  
Cooling Degree Days 0    
Month to date cooling degree days 0  
Year to date cooling degree days 2758  
Growing Degree Days 10 (Base 50)    
Moisture  
Dew Point 58 °F    
Average Humidity 86    
Maximum Humidity 93    
Minimum Humidity 78    
Precipitation  
Precipitation 0.00 in 0.11 in 1.55 in (1996)
Month to date precipitation 0.00 0.81  
Year to date precipitation 55.63 55.20  
Sea Level Pressure  
Sea Level Pressure 29.99 in    
Wind  
Wind Speed 6 mph (East)    
Max Wind Speed 13 mph    
Max Gust Speed 18 mph    
Visibility 8 miles    
Events Fog    
T = Trace of Precipitation, MM = Missing Value Source: NWS Daily Summary

Daily Weather History Graph

Daily Weather History Graph

Search for Another Location

Airport:

Trip Planner

Search our weather history database for the weather conditions in past years. The results will help you decide how hot, cold, wet, or windy it might be!

Date:

Astronomy

Dec. 07, 2012 Rise Set
Actual Time 7:22 AM EST 5:40 PM EST
Civil Twilight 6:56 AM EST 6:07 PM EST
Nautical Twilight 6:26 AM EST 6:36 PM EST
Astronomical Twilight 5:57 AM EST 7:05 PM EST
Moon 1:05 AM EST (12/7) 1:15 PM EST (12/7)
Length of Visible Light 11h 10m
Length of Day
10h 18m
Last Quarter, 39% of the Moon is Illuminated
Dec 7
Last Quarter
Dec 13
New
Dec 20
First Quarter
Dec 28
Full
Jan 4
Last Quarter

Hourly Weather History & Observations

Time (EST) Temp. Dew Point Humidity Pressure Visibility Wind Dir Wind Speed Gust Speed Precip Events Conditions
12:53 AM 66.9 °F 60.1 °F 79% 29.99 in 10.0 mi East 6.9 mph 16.1 mph N/A   Overcast
1:53 AM 64.9 °F 60.1 °F 84% 29.99 in 10.0 mi East 8.1 mph - N/A   Clear
2:34 AM 64.4 °F 60.8 °F 88% 29.98 in 10.0 mi East 6.9 mph - N/A   Partly Cloudy
2:53 AM 64.0 °F 60.1 °F 87% 29.98 in 10.0 mi East 5.8 mph - N/A   Scattered Clouds
3:12 AM 64.4 °F 60.8 °F 88% 29.98 in 10.0 mi East 6.9 mph - N/A   Mostly Cloudy
3:53 AM 64.0 °F 60.1 °F 87% 29.98 in 10.0 mi East 6.9 mph - N/A   Overcast
4:53 AM 64.0 °F 60.1 °F 87% 29.98 in 10.0 mi ESE 8.1 mph - N/A   Overcast
5:53 AM 64.0 °F 60.1 °F 87% 29.98 in 10.0 mi East 6.9 mph - N/A   Overcast
6:53 AM 64.4 °F 60.8 °F 88% 29.99 in 10.0 mi East 8.1 mph - N/A   Overcast
7:12 AM 64.4 °F 60.8 °F 88% 30.00 in 10.0 mi East 9.2 mph - N/A   Overcast
7:53 AM 64.9 °F 60.1 °F 84% 30.02 in 10.0 mi East 6.9 mph - N/A   Overcast
8:53 AM 64.9 °F 60.1 °F 84% 30.03 in 10.0 mi East 8.1 mph - N/A   Overcast
9:53 AM 66.0 °F 59.0 °F 78% 30.04 in 10.0 mi East 10.4 mph 17.3 mph N/A   Overcast
10:53 AM 66.0 °F 59.0 °F 78% 30.04 in 10.0 mi East 10.4 mph - N/A   Overcast
11:53 AM 66.0 °F 59.0 °F 78% 30.02 in 10.0 mi East 8.1 mph - N/A   Overcast
12:53 PM 66.0 °F 59.0 °F 78% 30.00 in 10.0 mi East 9.2 mph - N/A   Overcast
1:53 PM 66.9 °F 59.0 °F 76% 29.98 in 10.0 mi East 9.2 mph - N/A   Overcast
2:53 PM 66.9 °F 59.0 °F 76% 29.96 in 10.0 mi ESE 9.2 mph - N/A   Overcast
3:53 PM 64.9 °F 59.0 °F 81% 29.96 in 10.0 mi ESE 5.8 mph - N/A   Overcast
4:38 PM 64.4 °F 57.2 °F 77% 29.97 in 10.0 mi ESE 6.9 mph - N/A   Overcast
4:53 PM 64.0 °F 59.0 °F 84% 29.98 in 10.0 mi East 5.8 mph - N/A   Overcast
5:53 PM 63.0 °F 57.9 °F 84% 29.97 in 10.0 mi SE 8.1 mph - N/A   Overcast
6:53 PM 62.1 °F 57.9 °F 86% 29.98 in 10.0 mi Calm Calm - N/A   Mostly Cloudy
7:10 PM 60.8 °F 57.2 °F 88% 29.98 in 10.0 mi Calm Calm - N/A   Scattered Clouds
7:53 PM 60.8 °F 57.2 °F 88% 29.98 in 8.0 mi Calm Calm - N/A   Clear
8:53 PM 57.9 °F 55.9 °F 93% 29.99 in 6.0 mi Calm Calm - N/A   Clear
9:53 PM 57.0 °F 54.0 °F 89% 29.99 in 8.0 mi Calm Calm - N/A   Clear
10:28 PM 55.4 °F 53.6 °F 94% 29.99 in 10.0 mi NE 3.5 mph - N/A   Partly Cloudy
10:53 PM 55.9 °F 53.1 °F 90% 30.00 in 9.0 mi Calm Calm - N/A   Mostly Cloudy
10:57 PM 55.4 °F 51.8 °F 88% 30.00 in 1.2 mi Calm Calm - N/A   Mostly Cloudy
11:01 PM 53.6 °F 51.8 °F 94% 30.00 in 0.2 mi Calm Calm - N/A Fog Fog
11:25 PM 53.6 °F 53.6 °F 100% 30.00 in 2.0 mi NE 3.5 mph - N/A   Overcast
11:28 PM 55.4 °F 53.6 °F 94% 30.00 in 0.8 mi NE 3.5 mph - N/A   Mist
11:38 PM 55.4 °F 53.6 °F 94% 30.00 in 0.2 mi NE 3.5 mph - N/A Fog Fog
11:53 PM 55.0 °F 54.0 °F 96% 30.00 in 0.2 mi Calm Calm - N/A Fog Fog